Tracking 22438 objects as of 24-Feb-2021
HD Live streaming from Space Station
objects crossing your sky now

FREGAT DEB

Track FREGAT DEB now!
10-day predictions


NORAD ID: 46237
Int'l Code: 2011-037JX
Perigee: 447.7 km
Apogee: 3,441.1 km
Inclination: 51.4 °
Period: 125.8 minutes
Semi major axis: 8315 km
RCS: Unknown
Launch date: July 18, 2011
Source: Commonwealth of Independent States (former USSR) (CIS)
Launch site: TYURATAM MISSILE AND SPACE COMPLEX (TTMTR)

Note: This is SATELLITE DEBRIS
aabbcc
Your satellite tracking list
Your tracking list is empty




NASA's NSSDC Master Catalog

Two Line Element Set (TLE):
1 46237U 11037JX  21055.67968858  .00009069  00000-0  21421-2 0  9990
2 46237  51.4332  54.7754 1799913 204.6500 145.6752 11.44931801 21623
Source of the keplerian elements: AFSPC